Year,Month,Day,Hour,Minute,Value (Times are PST for windspeed in km/hr)
2015,08,28,00,00,0.10
2015,08,28,00,01,2.40
2015,08,28,00,02,4.40
2015,08,28,00,03,5.90
2015,08,28,00,04,4.40
2015,08,28,00,05,5.30
2015,08,28,00,06,6.70
2015,08,28,00,07,7.90
2015,08,28,00,08,8.90
2015,08,28,00,09,12.20
2015,08,28,00,10,9.30
2015,08,28,00,11,13.30
2015,08,28,00,12,13.20
2015,08,28,00,13,6.30
2015,08,28,00,14,7.60
2015,08,28,00,15,14.60
2015,08,28,00,16,12.40
2015,08,28,00,17,12.70
2015,08,28,00,18,12.40
2015,08,28,00,19,11.40
2015,08,28,00,20,9.10
2015,08,28,00,21,14.00
2015,08,28,00,22,12.70
2015,08,28,00,23,11.60
2015,08,28,00,24,17.90
2015,08,28,00,25,15.10
2015,08,28,00,26,17.40
2015,08,28,00,27,10.10
2015,08,28,00,28,4.90
2015,08,28,00,29,12.10
2015,08,28,00,30,12.90
2015,08,28,00,31,12.30
2015,08,28,00,32,9.70
2015,08,28,00,33,10.40
2015,08,28,00,34,7.80
2015,08,28,00,35,10.00
2015,08,28,00,36,11.10
2015,08,28,00,37,9.30
2015,08,28,00,38,11.80
2015,08,28,00,39,16.20
2015,08,28,00,40,14.50
2015,08,28,00,41,10.20
2015,08,28,00,42,9.90
2015,08,28,00,43,9.20
2015,08,28,00,44,9.80
2015,08,28,00,45,9.60
2015,08,28,00,46,12.10
2015,08,28,00,47,7.60
2015,08,28,00,48,8.40
2015,08,28,00,49,9.90
2015,08,28,00,50,5.90
2015,08,28,00,51,12.20
2015,08,28,00,52,9.80
2015,08,28,00,53,5.20
2015,08,28,00,54,5.90
2015,08,28,00,55,7.90
2015,08,28,00,56,9.30
2015,08,28,00,57,7.90
2015,08,28,00,58,6.80
2015,08,28,00,59,6.00
2015,08,28,01,00,3.50
2015,08,28,01,01,3.80
2015,08,28,01,02,5.10
2015,08,28,01,03,5.20
2015,08,28,01,04,3.60
2015,08,28,01,05,2.80
2015,08,28,01,06,1.40
2015,08,28,01,07,4.10
2015,08,28,01,08,2.10
2015,08,28,01,09,1.30
2015,08,28,01,10,1.70
2015,08,28,01,11,0.10
2015,08,28,01,12,1.60
2015,08,28,01,13,2.80
2015,08,28,01,14,1.30
2015,08,28,01,15,0.20
2015,08,28,01,16,0.10
2015,08,28,01,17,0.00
2015,08,28,01,18,0.70
2015,08,28,01,19,1.80
2015,08,28,01,20,1.00
2015,08,28,01,21,0.20
2015,08,28,01,22,0.00
2015,08,28,01,23,0.70
2015,08,28,01,24,2.10
2015,08,28,01,25,1.70
2015,08,28,01,26,3.30
2015,08,28,01,27,0.80
2015,08,28,01,28,0.70
2015,08,28,01,29,0.50
2015,08,28,01,30,0.80
2015,08,28,01,31,3.30
2015,08,28,01,32,0.60
2015,08,28,01,33,0.10
2015,08,28,01,34,0.60
2015,08,28,01,35,0.70
2015,08,28,01,36,0.30
2015,08,28,01,37,0.60
2015,08,28,01,38,1.30
2015,08,28,01,39,1.50
2015,08,28,01,40,0.80
2015,08,28,01,41,0.20
2015,08,28,01,42,1.40
2015,08,28,01,43,1.30
2015,08,28,01,44,0.20
2015,08,28,01,45,0.00
2015,08,28,01,46,0.00
2015,08,28,01,47,0.00
2015,08,28,01,48,0.00
2015,08,28,01,49,0.10
2015,08,28,01,50,1.50
2015,08,28,01,51,2.50
2015,08,28,01,52,1.30
2015,08,28,01,53,0.60
2015,08,28,01,54,0.10
2015,08,28,01,55,0.30
2015,08,28,01,56,0.00
2015,08,28,01,57,0.00
2015,08,28,01,58,0.00
2015,08,28,01,59,0.00
2015,08,28,02,00,0.00
2015,08,28,02,01,0.00
2015,08,28,02,02,0.00
2015,08,28,02,03,0.00
2015,08,28,02,04,0.00
2015,08,28,02,05,0.00
2015,08,28,02,06,0.20
2015,08,28,02,07,0.00
2015,08,28,02,08,0.00
2015,08,28,02,09,1.10
2015,08,28,02,10,1.10
2015,08,28,02,11,0.60
2015,08,28,02,12,0.60
2015,08,28,02,13,1.10
2015,08,28,02,14,2.30
2015,08,28,02,15,0.80
2015,08,28,02,16,0.80
2015,08,28,02,17,2.30
2015,08,28,02,18,2.10
2015,08,28,02,19,0.00
2015,08,28,02,20,0.00
2015,08,28,02,21,0.00
2015,08,28,02,22,0.00
2015,08,28,02,23,0.00
2015,08,28,02,24,0.00
2015,08,28,02,25,0.00
2015,08,28,02,26,0.00
2015,08,28,02,27,0.00
2015,08,28,02,28,0.00
2015,08,28,02,29,0.00
2015,08,28,02,30,0.20
2015,08,28,02,31,0.00
2015,08,28,02,32,0.20
2015,08,28,02,33,0.00
2015,08,28,02,34,0.90
2015,08,28,02,35,0.70
2015,08,28,02,36,0.40
2015,08,28,02,37,0.90
2015,08,28,02,38,1.20
2015,08,28,02,39,0.60
2015,08,28,02,40,1.20
2015,08,28,02,41,2.60
2015,08,28,02,42,2.70
2015,08,28,02,43,2.00
2015,08,28,02,44,1.20
2015,08,28,02,45,0.30
2015,08,28,02,46,1.40
2015,08,28,02,47,1.80
2015,08,28,02,48,1.80
2015,08,28,02,49,1.70
2015,08,28,02,50,2.10
2015,08,28,02,51,3.80
2015,08,28,02,52,3.40
2015,08,28,02,53,3.70
2015,08,28,02,54,3.80
2015,08,28,02,55,2.90
2015,08,28,02,56,2.40
2015,08,28,02,57,1.70
2015,08,28,02,58,0.60
2015,08,28,02,59,0.80
2015,08,28,03,00,0.00
2015,08,28,03,01,0.20
2015,08,28,03,02,0.10
2015,08,28,03,03,0.00
2015,08,28,03,04,0.00
2015,08,28,03,05,0.10
2015,08,28,03,06,0.50
2015,08,28,03,07,1.40
2015,08,28,03,08,1.20
2015,08,28,03,09,0.90
2015,08,28,03,10,0.70
2015,08,28,03,11,0.80
2015,08,28,03,12,1.30
2015,08,28,03,13,1.50
2015,08,28,03,14,0.90
2015,08,28,03,15,0.00
2015,08,28,03,16,0.00
2015,08,28,03,17,0.00
2015,08,28,03,18,0.00
2015,08,28,03,19,0.00
2015,08,28,03,20,0.10
2015,08,28,03,21,0.60
2015,08,28,03,22,0.30
2015,08,28,03,23,0.00
2015,08,28,03,24,0.00
2015,08,28,03,25,0.00
2015,08,28,03,26,0.00
2015,08,28,03,27,0.60
2015,08,28,03,28,0.30
2015,08,28,03,29,0.00
2015,08,28,03,30,0.00
2015,08,28,03,31,0.00
2015,08,28,03,32,0.40
2015,08,28,03,33,0.10
2015,08,28,03,34,0.60
2015,08,28,03,35,0.70
2015,08,28,03,36,1.70
2015,08,28,03,37,0.90
2015,08,28,03,38,0.30
2015,08,28,03,39,0.00
2015,08,28,03,40,0.00
2015,08,28,03,41,0.40
2015,08,28,03,42,1.10
2015,08,28,03,43,0.80
2015,08,28,03,44,0.60
2015,08,28,03,45,0.10
2015,08,28,03,46,0.00
2015,08,28,03,47,0.00
2015,08,28,03,48,0.00
2015,08,28,03,49,0.20
2015,08,28,03,50,0.20
2015,08,28,03,51,0.00
2015,08,28,03,52,0.00
2015,08,28,03,53,0.20
2015,08,28,03,54,0.90
2015,08,28,03,55,1.30
2015,08,28,03,56,1.10
2015,08,28,03,57,1.80
2015,08,28,03,58,1.10
2015,08,28,03,59,0.90
2015,08,28,04,00,1.80
2015,08,28,04,01,0.80
2015,08,28,04,02,0.10
2015,08,28,04,03,0.00
2015,08,28,04,04,0.30
2015,08,28,04,05,1.80
2015,08,28,04,06,1.20
2015,08,28,04,07,3.00
2015,08,28,04,08,0.70
2015,08,28,04,09,0.90
2015,08,28,04,10,0.10
2015,08,28,04,11,0.40
2015,08,28,04,12,0.10
2015,08,28,04,13,0.10
2015,08,28,04,14,0.10
2015,08,28,04,15,1.30
2015,08,28,04,16,0.80
2015,08,28,04,17,0.10
2015,08,28,04,18,0.10
2015,08,28,04,19,0.10
2015,08,28,04,20,0.00
2015,08,28,04,21,0.00
2015,08,28,04,22,0.00
2015,08,28,04,23,0.00
2015,08,28,04,24,0.30
2015,08,28,04,25,0.20
2015,08,28,04,26,0.10
2015,08,28,04,27,0.00
2015,08,28,04,28,0.10
2015,08,28,04,29,0.00
2015,08,28,04,30,0.00
2015,08,28,04,31,0.00
2015,08,28,04,32,0.20
2015,08,28,04,33,0.00
2015,08,28,04,34,0.00
2015,08,28,04,35,0.00
2015,08,28,04,36,0.00
2015,08,28,04,37,0.00
2015,08,28,04,38,0.00
2015,08,28,04,39,0.00
2015,08,28,04,40,0.50
2015,08,28,04,41,0.00
2015,08,28,04,42,0.00
2015,08,28,04,43,1.10
2015,08,28,04,44,1.60
2015,08,28,04,45,2.50
2015,08,28,04,46,2.30
2015,08,28,04,47,1.90
2015,08,28,04,48,1.10
2015,08,28,04,49,0.90
2015,08,28,04,50,1.70
2015,08,28,04,51,0.90
2015,08,28,04,52,0.50
2015,08,28,04,53,0.50
2015,08,28,04,54,0.40
2015,08,28,04,55,0.10
2015,08,28,04,56,0.50
2015,08,28,04,57,0.60
2015,08,28,04,58,1.30
2015,08,28,04,59,1.70
2015,08,28,05,00,1.80
2015,08,28,05,01,2.20
2015,08,28,05,02,2.30
2015,08,28,05,03,0.90
2015,08,28,05,04,0.10
2015,08,28,05,05,0.60
2015,08,28,05,06,0.30
2015,08,28,05,07,0.30
2015,08,28,05,08,0.60
2015,08,28,05,09,0.20
2015,08,28,05,10,0.00
2015,08,28,05,11,0.80
2015,08,28,05,12,1.20
2015,08,28,05,13,0.90
2015,08,28,05,14,0.00
2015,08,28,05,15,0.10
2015,08,28,05,16,0.20
2015,08,28,05,17,0.80
2015,08,28,05,18,0.60
2015,08,28,05,19,0.60
2015,08,28,05,20,0.10
2015,08,28,05,21,1.60
2015,08,28,05,22,2.30
2015,08,28,05,23,2.60
2015,08,28,05,24,1.60
2015,08,28,05,25,0.80
2015,08,28,05,26,0.30
2015,08,28,05,27,1.60
2015,08,28,05,28,1.70
2015,08,28,05,29,0.80
2015,08,28,05,30,0.10
2015,08,28,05,31,0.00
2015,08,28,05,32,0.00
2015,08,28,05,33,0.00
2015,08,28,05,34,0.00
2015,08,28,05,35,0.00
2015,08,28,05,36,0.00
2015,08,28,05,37,0.00
2015,08,28,05,38,0.20
2015,08,28,05,39,0.60
2015,08,28,05,40,0.10
2015,08,28,05,41,0.00
2015,08,28,05,42,0.00
2015,08,28,05,43,1.50
2015,08,28,05,44,1.40
2015,08,28,05,45,0.80
2015,08,28,05,46,2.80
2015,08,28,05,47,2.80
2015,08,28,05,48,1.80
2015,08,28,05,49,0.90
2015,08,28,05,50,0.80
2015,08,28,05,51,0.60
2015,08,28,05,52,0.90
2015,08,28,05,53,1.10
2015,08,28,05,54,1.60
2015,08,28,05,55,0.10
2015,08,28,05,56,0.30
2015,08,28,05,57,1.80
2015,08,28,05,58,1.50
2015,08,28,05,59,0.60
2015,08,28,06,00,0.00
2015,08,28,06,01,0.00
2015,08,28,06,02,2.40
2015,08,28,06,03,3.30
2015,08,28,06,04,0.50
2015,08,28,06,05,0.00
2015,08,28,06,06,0.00
2015,08,28,06,07,0.00
2015,08,28,06,08,0.00
2015,08,28,06,09,0.00
2015,08,28,06,10,1.10
2015,08,28,06,11,2.10
2015,08,28,06,12,1.90
2015,08,28,06,13,0.80
2015,08,28,06,14,1.70
2015,08,28,06,15,3.00
2015,08,28,06,16,3.10
2015,08,28,06,17,3.40
2015,08,28,06,18,4.40
2015,08,28,06,19,1.80
2015,08,28,06,20,0.10
2015,08,28,06,21,1.70
2015,08,28,06,22,2.10
2015,08,28,06,23,0.20
2015,08,28,06,24,1.30
2015,08,28,06,25,2.60
2015,08,28,06,26,1.80
2015,08,28,06,27,0.30
2015,08,28,06,28,0.00
2015,08,28,06,29,0.10
2015,08,28,06,30,0.40
2015,08,28,06,31,0.20
2015,08,28,06,32,0.50
2015,08,28,06,33,1.90
2015,08,28,06,34,3.00
2015,08,28,06,35,1.10
2015,08,28,06,36,1.40
2015,08,28,06,37,1.10
2015,08,28,06,38,0.80
2015,08,28,06,39,2.70
2015,08,28,06,40,0.70
2015,08,28,06,41,0.00
2015,08,28,06,42,0.00
2015,08,28,06,43,0.00
2015,08,28,06,44,0.00
2015,08,28,06,45,0.00
2015,08,28,06,46,0.00
2015,08,28,06,47,0.00
2015,08,28,06,48,0.00
2015,08,28,06,49,0.10
2015,08,28,06,50,0.10
2015,08,28,06,51,0.00
2015,08,28,06,52,0.00
2015,08,28,06,53,0.00
2015,08,28,06,54,0.00
2015,08,28,06,55,0.00
2015,08,28,06,56,0.00
2015,08,28,06,57,0.10
2015,08,28,06,58,0.30
2015,08,28,06,59,0.10
2015,08,28,07,00,1.50
2015,08,28,07,01,1.00
2015,08,28,07,02,3.80
2015,08,28,07,03,3.30
2015,08,28,07,04,3.80
2015,08,28,07,05,3.90
2015,08,28,07,06,2.10
2015,08,28,07,07,0.40
2015,08,28,07,08,0.10
2015,08,28,07,09,0.20
2015,08,28,07,10,0.00
2015,08,28,07,11,0.00
2015,08,28,07,12,0.30
2015,08,28,07,13,0.00
2015,08,28,07,14,2.00
2015,08,28,07,15,3.00
2015,08,28,07,16,2.60
2015,08,28,07,17,2.40
2015,08,28,07,18,2.20
2015,08,28,07,19,0.90
2015,08,28,07,20,0.00
2015,08,28,07,21,0.00
2015,08,28,07,22,0.30
2015,08,28,07,23,1.90
2015,08,28,07,24,1.60
2015,08,28,07,25,1.70
2015,08,28,07,26,0.40
2015,08,28,07,27,1.60
2015,08,28,07,28,2.50
2015,08,28,07,29,4.20
2015,08,28,07,30,3.30
2015,08,28,07,31,1.70
2015,08,28,07,32,0.10
2015,08,28,07,33,0.00
2015,08,28,07,34,0.80
2015,08,28,07,35,1.90
2015,08,28,07,36,2.60
2015,08,28,07,37,3.40
2015,08,28,07,38,4.30
2015,08,28,07,39,4.50
2015,08,28,07,40,3.20
2015,08,28,07,41,2.70
2015,08,28,07,42,4.20
2015,08,28,07,43,5.20
2015,08,28,07,44,4.90
2015,08,28,07,45,4.20
2015,08,28,07,46,2.40
2015,08,28,07,47,1.30
2015,08,28,07,48,0.00
2015,08,28,07,49,0.10
2015,08,28,07,50,0.40
2015,08,28,07,51,1.30
2015,08,28,07,52,3.90
2015,08,28,07,53,4.70
2015,08,28,07,54,3.20
2015,08,28,07,55,2.10
2015,08,28,07,56,1.80
2015,08,28,07,57,1.80
2015,08,28,07,58,0.40
2015,08,28,07,59,0.00
2015,08,28,08,00,0.00
2015,08,28,08,01,0.20
2015,08,28,08,02,0.00
2015,08,28,08,03,0.00
2015,08,28,08,04,0.40
2015,08,28,08,05,0.50
2015,08,28,08,06,1.80
2015,08,28,08,07,3.50
2015,08,28,08,08,2.40
2015,08,28,08,09,2.10
2015,08,28,08,10,1.50
2015,08,28,08,11,2.30
2015,08,28,08,12,1.90
2015,08,28,08,13,2.40
2015,08,28,08,14,0.30
2015,08,28,08,15,2.60
2015,08,28,08,16,4.10
2015,08,28,08,17,2.70
2015,08,28,08,18,0.80
2015,08,28,08,19,4.30
2015,08,28,08,20,2.60
2015,08,28,08,21,3.30
2015,08,28,08,22,4.20
2015,08,28,08,23,1.60
2015,08,28,08,24,1.20
2015,08,28,08,25,0.90
2015,08,28,08,26,0.30
2015,08,28,08,27,0.70
2015,08,28,08,28,2.80
2015,08,28,08,29,1.30
2015,08,28,08,30,4.10
2015,08,28,08,31,2.50
2015,08,28,08,32,0.40
2015,08,28,08,33,0.20
2015,08,28,08,34,1.60
2015,08,28,08,35,2.20
2015,08,28,08,36,4.10
2015,08,28,08,37,2.50
2015,08,28,08,38,1.70
2015,08,28,08,39,5.30
2015,08,28,08,40,4.70
2015,08,28,08,41,5.70
2015,08,28,08,42,5.90
2015,08,28,08,43,4.90
2015,08,28,08,44,1.90
2015,08,28,08,45,1.10
2015,08,28,08,46,0.40
2015,08,28,08,47,3.40
2015,08,28,08,48,3.00
2015,08,28,08,49,2.50
2015,08,28,08,50,3.80
2015,08,28,08,51,2.20
2015,08,28,08,52,4.30
2015,08,28,08,53,3.00
2015,08,28,08,54,1.20
2015,08,28,08,55,2.80
2015,08,28,08,56,3.00
2015,08,28,08,57,1.90
2015,08,28,08,58,2.50
2015,08,28,08,59,2.40
2015,08,28,09,00,2.60
2015,08,28,09,01,3.40
2015,08,28,09,02,4.70
2015,08,28,09,03,8.30
2015,08,28,09,04,7.00
2015,08,28,09,05,3.10
2015,08,28,09,06,2.70
2015,08,28,09,07,4.10
2015,08,28,09,08,5.90
2015,08,28,09,09,4.20
2015,08,28,09,10,2.30
2015,08,28,09,11,0.80
2015,08,28,09,12,0.00
2015,08,28,09,13,0.10
2015,08,28,09,14,1.50
2015,08,28,09,15,1.80
2015,08,28,09,16,3.40
2015,08,28,09,17,1.60
2015,08,28,09,18,1.00
2015,08,28,09,19,3.10
2015,08,28,09,20,2.00
2015,08,28,09,21,3.80
2015,08,28,09,22,5.20
2015,08,28,09,23,5.10
2015,08,28,09,24,2.70
2015,08,28,09,25,2.10
2015,08,28,09,26,2.90
2015,08,28,09,27,2.90
2015,08,28,09,28,4.60
2015,08,28,09,29,5.40
2015,08,28,09,30,3.80
2015,08,28,09,31,1.50
2015,08,28,09,32,2.30
2015,08,28,09,33,1.40
2015,08,28,09,34,2.40
2015,08,28,09,35,3.30
2015,08,28,09,36,3.10
2015,08,28,09,37,4.00
2015,08,28,09,38,1.90
2015,08,28,09,39,1.90
2015,08,28,09,40,1.30
2015,08,28,09,41,0.10
2015,08,28,09,42,0.10
2015,08,28,09,43,0.40
2015,08,28,09,44,0.00
2015,08,28,09,45,0.00
2015,08,28,09,46,1.60
2015,08,28,09,47,1.50
2015,08,28,09,48,0.00
2015,08,28,09,49,0.50
2015,08,28,09,50,1.20
2015,08,28,09,51,1.70
2015,08,28,09,52,0.30
2015,08,28,09,53,0.40
2015,08,28,09,54,0.10
2015,08,28,09,55,0.40
2015,08,28,09,56,0.60
2015,08,28,09,57,0.60
2015,08,28,09,58,1.70
2015,08,28,09,59,0.90
2015,08,28,10,00,2.10
2015,08,28,10,01,2.50
2015,08,28,10,02,4.20
2015,08,28,10,03,3.50
2015,08,28,10,04,2.40
2015,08,28,10,05,1.00
2015,08,28,10,06,2.80
2015,08,28,10,07,2.40
2015,08,28,10,08,1.90
2015,08,28,10,09,3.70
2015,08,28,10,10,2.10
2015,08,28,10,11,2.20
2015,08,28,10,12,3.60
2015,08,28,10,13,4.00
2015,08,28,10,14,4.00
2015,08,28,10,15,1.40
2015,08,28,10,16,0.90
2015,08,28,10,17,4.40
2015,08,28,10,18,2.80
2015,08,28,10,19,1.60
2015,08,28,10,20,0.90
2015,08,28,10,21,0.90
2015,08,28,10,22,1.40
2015,08,28,10,23,5.50
2015,08,28,10,24,2.80
2015,08,28,10,25,1.70
2015,08,28,10,26,1.80
2015,08,28,10,27,1.90
2015,08,28,10,28,0.50
2015,08,28,10,29,0.20
2015,08,28,10,30,0.20
2015,08,28,10,31,1.00
2015,08,28,10,32,0.70
2015,08,28,10,33,0.90
2015,08,28,10,34,2.70
2015,08,28,10,35,2.50
2015,08,28,10,36,3.80
2015,08,28,10,37,2.60
2015,08,28,10,38,5.50
2015,08,28,10,39,5.40
2015,08,28,10,40,4.00
2015,08,28,10,41,2.50
2015,08,28,10,42,1.10
2015,08,28,10,43,4.20
2015,08,28,10,44,4.80
2015,08,28,10,45,1.00
2015,08,28,10,46,0.20
2015,08,28,10,47,1.60
2015,08,28,10,48,0.80
2015,08,28,10,49,4.10
2015,08,28,10,50,3.30
2015,08,28,10,51,2.80
2015,08,28,10,52,3.00
2015,08,28,10,53,3.70
2015,08,28,10,54,3.50
2015,08,28,10,55,2.90
2015,08,28,10,56,2.90
2015,08,28,10,57,2.20
2015,08,28,10,58,2.00
2015,08,28,10,59,2.50
2015,08,28,11,00,3.80
2015,08,28,11,01,2.50
2015,08,28,11,02,4.00
2015,08,28,11,03,3.00
2015,08,28,11,04,2.70
2015,08,28,11,05,3.50
2015,08,28,11,06,3.70
2015,08,28,11,07,2.50
2015,08,28,11,08,2.50
2015,08,28,11,09,0.80
2015,08,28,11,10,2.90
2015,08,28,11,11,2.30
2015,08,28,11,12,6.10
2015,08,28,11,13,5.10
2015,08,28,11,14,3.20
2015,08,28,11,15,3.20
2015,08,28,11,16,3.20
2015,08,28,11,17,3.20
2015,08,28,11,18,4.20
2015,08,28,11,19,3.00
2015,08,28,11,20,2.40
2015,08,28,11,21,4.20
2015,08,28,11,22,3.00
2015,08,28,11,23,3.80
2015,08,28,11,24,2.70
2015,08,28,11,25,4.90
2015,08,28,11,26,4.60
2015,08,28,11,27,8.80
2015,08,28,11,28,5.10
2015,08,28,11,29,1.40
2015,08,28,11,30,1.10
2015,08,28,11,31,4.40
2015,08,28,11,32,3.20
2015,08,28,11,33,5.90
2015,08,28,11,34,2.10
2015,08,28,11,35,1.80
2015,08,28,11,36,3.10
2015,08,28,11,37,6.00
2015,08,28,11,38,6.00
2015,08,28,11,39,2.90
2015,08,28,11,40,3.30
2015,08,28,11,41,1.70
2015,08,28,11,42,5.00
2015,08,28,11,43,4.40
2015,08,28,11,44,2.50
2015,08,28,11,45,2.70
2015,08,28,11,46,5.30
2015,08,28,11,47,2.60
2015,08,28,11,48,1.80
2015,08,28,11,49,0.80
2015,08,28,11,50,1.70
2015,08,28,11,51,6.10
2015,08,28,11,52,5.60
2015,08,28,11,53,3.60
2015,08,28,11,54,5.00
2015,08,28,11,55,3.80
2015,08,28,11,56,3.60
2015,08,28,11,57,3.30
2015,08,28,11,58,2.80
2015,08,28,11,59,3.80
2015,08,28,12,00,3.50
2015,08,28,12,01,8.30
2015,08,28,12,02,6.00
2015,08,28,12,03,5.90
2015,08,28,12,04,7.90
2015,08,28,12,05,4.60
2015,08,28,12,06,7.70
2015,08,28,12,07,4.90
2015,08,28,12,08,3.80
2015,08,28,12,09,4.70
2015,08,28,12,10,9.70
2015,08,28,12,11,10.20
2015,08,28,12,12,8.30
2015,08,28,12,13,5.30
2015,08,28,12,14,5.50
2015,08,28,12,15,7.70
2015,08,28,12,16,5.30
2015,08,28,12,17,6.20
2015,08,28,12,18,6.70
2015,08,28,12,19,8.80
2015,08,28,12,20,6.80
2015,08,28,12,21,1.40
2015,08,28,12,22,3.50
2015,08,28,12,23,5.30
2015,08,28,12,24,3.00
2015,08,28,12,25,5.20
2015,08,28,12,26,7.20
2015,08,28,12,27,6.70
2015,08,28,12,28,4.90
2015,08,28,12,29,3.90
2015,08,28,12,30,4.60
2015,08,28,12,31,3.70
2015,08,28,12,32,5.60
2015,08,28,12,33,4.40
2015,08,28,12,34,6.10
2015,08,28,12,35,9.00
2015,08,28,12,36,4.70
2015,08,28,12,37,3.20
2015,08,28,12,38,4.80
2015,08,28,12,39,7.20
2015,08,28,12,40,3.70
2015,08,28,12,41,2.10
2015,08,28,12,42,4.90
2015,08,28,12,43,3.30
2015,08,28,12,44,7.70
2015,08,28,12,45,6.20
2015,08,28,12,46,2.80
2015,08,28,12,47,1.90
2015,08,28,12,48,6.50
2015,08,28,12,49,3.40
2015,08,28,12,50,3.60
2015,08,28,12,51,4.50
2015,08,28,12,52,2.00
2015,08,28,12,53,1.80
2015,08,28,12,54,2.80
2015,08,28,12,55,1.20
2015,08,28,12,56,3.10
2015,08,28,12,57,4.30
2015,08,28,12,58,5.70
2015,08,28,12,59,12.00
2015,08,28,13,00,6.60
2015,08,28,13,01,3.00
2015,08,28,13,02,1.20
2015,08,28,13,03,11.70
2015,08,28,13,04,9.40
2015,08,28,13,05,10.90
2015,08,28,13,06,7.20
2015,08,28,13,07,3.00
2015,08,28,13,08,4.60
2015,08,28,13,09,2.50
2015,08,28,13,10,1.60
2015,08,28,13,11,5.20
2015,08,28,13,12,9.00
2015,08,28,13,13,6.20
2015,08,28,13,14,5.90
2015,08,28,13,15,4.20
2015,08,28,13,16,7.50
2015,08,28,13,17,6.30
2015,08,28,13,18,3.80
2015,08,28,13,19,4.40
2015,08,28,13,20,5.80
2015,08,28,13,21,3.20
2015,08,28,13,22,8.40
2015,08,28,13,23,4.70
2015,08,28,13,24,6.80
2015,08,28,13,25,4.70
2015,08,28,13,26,4.70
2015,08,28,13,27,4.70
2015,08,28,13,28,3.60
2015,08,28,13,29,3.40
2015,08,28,13,30,2.60
2015,08,28,13,31,1.70
2015,08,28,13,32,3.40
2015,08,28,13,33,3.40
2015,08,28,13,34,4.30
2015,08,28,13,35,5.10
2015,08,28,13,36,3.40
2015,08,28,13,37,4.20
2015,08,28,13,38,4.80
2015,08,28,13,39,3.10
2015,08,28,13,40,2.90
2015,08,28,13,41,5.90
2015,08,28,13,42,10.40
2015,08,28,13,43,4.60
2015,08,28,13,44,3.50
2015,08,28,13,45,12.00
2015,08,28,13,46,7.50
2015,08,28,13,47,6.90
2015,08,28,13,48,5.50
2015,08,28,13,49,5.30
2015,08,28,13,50,3.60
2015,08,28,13,51,7.00
2015,08,28,13,52,4.20
2015,08,28,13,53,3.40
2015,08,28,13,54,4.50
2015,08,28,13,55,4.40
2015,08,28,13,56,4.50
2015,08,28,13,57,2.00
2015,08,28,13,58,7.20
2015,08,28,13,59,5.70
2015,08,28,14,00,2.90
2015,08,28,14,01,5.40
2015,08,28,14,02,7.70
2015,08,28,14,03,10.90
2015,08,28,14,04,3.40
2015,08,28,14,05,4.70
2015,08,28,14,06,7.50
2015,08,28,14,07,4.70
2015,08,28,14,08,4.30
2015,08,28,14,09,4.70
2015,08,28,14,10,5.40
2015,08,28,14,11,4.50
2015,08,28,14,12,4.40
2015,08,28,14,13,4.20
2015,08,28,14,14,9.20
2015,08,28,14,15,9.00
2015,08,28,14,16,6.40
2015,08,28,14,17,3.20
2015,08,28,14,18,4.00
2015,08,28,14,19,4.00
2015,08,28,14,20,5.70
2015,08,28,14,21,5.40
2015,08,28,14,22,3.90
2015,08,28,14,23,8.30
2015,08,28,14,24,5.80
2015,08,28,14,25,2.60
2015,08,28,14,26,4.00
2015,08,28,14,27,3.90
2015,08,28,14,28,3.90
2015,08,28,14,29,0.90
2015,08,28,14,30,4.80
2015,08,28,14,31,6.60
2015,08,28,14,32,4.80
2015,08,28,14,33,3.30
2015,08,28,14,34,4.40
2015,08,28,14,35,4.90
2015,08,28,14,36,1.70
2015,08,28,14,37,4.40
2015,08,28,14,38,4.70
2015,08,28,14,39,4.40
2015,08,28,14,40,3.50
2015,08,28,14,41,4.50
2015,08,28,14,42,6.20
2015,08,28,14,43,3.80
2015,08,28,14,44,5.00
2015,08,28,14,45,4.40
2015,08,28,14,46,7.40
2015,08,28,14,47,5.30
2015,08,28,14,48,2.90
2015,08,28,14,49,2.20
2015,08,28,14,50,2.70
2015,08,28,14,51,5.70
2015,08,28,14,52,5.10
2015,08,28,14,53,5.50
2015,08,28,14,54,4.50
2015,08,28,14,55,3.10
2015,08,28,14,56,4.80
2015,08,28,14,57,10.10
2015,08,28,14,58,12.00
2015,08,28,14,59,5.20
2015,08,28,15,00,7.60
2015,08,28,15,01,4.80
2015,08,28,15,02,7.00
2015,08,28,15,03,5.40
2015,08,28,15,04,9.20
2015,08,28,15,05,7.40
2015,08,28,15,06,7.30
2015,08,28,15,07,5.80
2015,08,28,15,08,6.40
2015,08,28,15,09,4.90
2015,08,28,15,10,8.90
2015,08,28,15,11,7.30
2015,08,28,15,12,8.70
2015,08,28,15,13,4.40
2015,08,28,15,14,7.70
2015,08,28,15,15,7.30
2015,08,28,15,16,8.20
2015,08,28,15,17,11.30
2015,08,28,15,18,7.60
2015,08,28,15,19,7.40
2015,08,28,15,20,8.00
2015,08,28,15,21,7.30
2015,08,28,15,22,7.90
2015,08,28,15,23,5.10
2015,08,28,15,24,5.20
2015,08,28,15,25,7.30
2015,08,28,15,26,6.70
2015,08,28,15,27,8.60
2015,08,28,15,28,6.00
2015,08,28,15,29,8.00
2015,08,28,15,30,5.50
2015,08,28,15,31,6.50
2015,08,28,15,32,6.70
2015,08,28,15,33,5.10
2015,08,28,15,34,5.50
2015,08,28,15,35,6.80
2015,08,28,15,36,10.30
2015,08,28,15,37,11.70
2015,08,28,15,38,4.70
2015,08,28,15,39,7.00
2015,08,28,15,40,8.40
2015,08,28,15,41,7.10
2015,08,28,15,42,10.30
2015,08,28,15,43,13.00
2015,08,28,15,44,7.10
2015,08,28,15,45,8.80
2015,08,28,15,46,7.60
2015,08,28,15,47,6.80
2015,08,28,15,48,5.60
2015,08,28,15,49,5.50
2015,08,28,15,50,5.20
2015,08,28,15,51,6.70
2015,08,28,15,52,3.60
2015,08,28,15,53,6.70
2015,08,28,15,54,7.70
2015,08,28,15,55,8.40
2015,08,28,15,56,11.40
2015,08,28,15,57,10.30
2015,08,28,15,58,11.40
2015,08,28,15,59,7.20
2015,08,28,16,00,6.00
2015,08,28,16,01,7.80
2015,08,28,16,02,7.60
2015,08,28,16,03,5.70
2015,08,28,16,04,4.90
2015,08,28,16,05,6.50
2015,08,28,16,06,10.60
2015,08,28,16,07,7.20
2015,08,28,16,08,11.00
2015,08,28,16,09,7.00
2015,08,28,16,10,11.00
2015,08,28,16,11,9.90
2015,08,28,16,12,7.90
2015,08,28,16,13,8.80
2015,08,28,16,14,10.80
2015,08,28,16,15,11.00
2015,08,28,16,16,5.80
2015,08,28,16,17,8.30
2015,08,28,16,18,7.90
2015,08,28,16,19,6.20
2015,08,28,16,20,3.40
2015,08,28,16,21,5.20
2015,08,28,16,22,6.70
2015,08,28,16,23,5.00
2015,08,28,16,24,3.00
2015,08,28,16,25,1.60
2015,08,28,16,26,8.90
2015,08,28,16,27,5.50
2015,08,28,16,28,5.40
2015,08,28,16,29,5.10
2015,08,28,16,30,4.40
2015,08,28,16,31,3.90
2015,08,28,16,32,6.90
2015,08,28,16,33,6.70
2015,08,28,16,34,8.40
2015,08,28,16,35,6.30
2015,08,28,16,36,7.70
2015,08,28,16,37,7.90
2015,08,28,16,38,6.10
2015,08,28,16,39,7.80
2015,08,28,16,40,7.10
2015,08,28,16,41,10.50
2015,08,28,16,42,10.80
2015,08,28,16,43,11.70
2015,08,28,16,44,6.20
2015,08,28,16,45,5.50
2015,08,28,16,46,4.90
2015,08,28,16,47,6.40
2015,08,28,16,48,9.70
2015,08,28,16,49,10.10
2015,08,28,16,50,9.00
2015,08,28,16,51,8.50
2015,08,28,16,52,8.20
2015,08,28,16,53,7.70
2015,08,28,16,54,7.20
2015,08,28,16,55,7.80
2015,08,28,16,56,11.60
2015,08,28,16,57,9.10
2015,08,28,16,58,11.20
2015,08,28,16,59,7.80
2015,08,28,17,00,6.30
2015,08,28,17,01,9.50
2015,08,28,17,02,8.00
2015,08,28,17,03,7.70
2015,08,28,17,04,5.60
2015,08,28,17,05,4.60
2015,08,28,17,06,6.90
2015,08,28,17,07,11.00
2015,08,28,17,08,9.60
2015,08,28,17,09,12.00
2015,08,28,17,10,9.30
2015,08,28,17,11,11.50
2015,08,28,17,12,10.30
2015,08,28,17,13,9.70
2015,08,28,17,14,12.00
2015,08,28,17,15,9.30
2015,08,28,17,16,8.20
2015,08,28,17,17,10.40
2015,08,28,17,18,9.40
2015,08,28,17,19,7.70
2015,08,28,17,20,10.90
2015,08,28,17,21,8.60
2015,08,28,17,22,10.40
2015,08,28,17,23,11.00
2015,08,28,17,24,4.50
2015,08,28,17,25,10.00
2015,08,28,17,26,7.70
2015,08,28,17,27,6.60
2015,08,28,17,28,5.50
2015,08,28,17,29,5.20
2015,08,28,17,30,2.60
2015,08,28,17,31,4.00
2015,08,28,17,32,4.50
2015,08,28,17,33,6.40
2015,08,28,17,34,7.40
2015,08,28,17,35,5.50
2015,08,28,17,36,4.70
2015,08,28,17,37,5.10
2015,08,28,17,38,6.70
2015,08,28,17,39,5.80
2015,08,28,17,40,4.30
2015,08,28,17,41,3.90
2015,08,28,17,42,4.00
2015,08,28,17,43,7.90
2015,08,28,17,44,8.40
2015,08,28,17,45,8.90
2015,08,28,17,46,5.50
2015,08,28,17,47,3.30
2015,08,28,17,48,5.80
2015,08,28,17,49,6.00
2015,08,28,17,50,4.60
2015,08,28,17,51,7.50
2015,08,28,17,52,7.50
2015,08,28,17,53,4.50
2015,08,28,17,54,5.10
2015,08,28,17,55,2.90
2015,08,28,17,56,5.70
2015,08,28,17,57,4.60
2015,08,28,17,58,3.80
2015,08,28,17,59,4.70
2015,08,28,18,00,8.60
2015,08,28,18,01,4.00
2015,08,28,18,02,3.80
2015,08,28,18,03,3.90